Terminal Aerodrome Forecast
Issued by NWS Charleston, WV

Home | Current Version | Previous Version | Text Only | Print | Product List | Glossary On
Versions: 1 2 3 4 5 6 7 8 9 10 11 12 13 14 15 16 17 18 19 20 21 22 23 24 25 26 27 28 29
000
FTUS41 KRLX 310400 AAA
TAFHTS
TAF AMD
KHTS 310416Z 3104/3124 00000KT 6SM BR SCT050
     FM310600 00000KT 2SM BR SCT250
     FM310800 00000KT 1/4SM FG VV001
     FM311300 00000KT 1/2SM FG OVC001
     FM311400 00000KT 2SM BR BKN002
     FM311500 20004KT P6SM SCT050=

USA.gov is the U.S. government's official web portal to all federal, state and local government web resources and services.